Location: Pianadetto
(44.4000°N, 10.1000°E)
Time: 01:35:30
(UTC+00:00)

ADEOS II - Pass Details

Date: 26 May 2022
Orbit: 798 x 801 km, 98.6° (Epoch: 26 June)

Event Time Altitude Azimuth Distance (km) Brightness Sun altitude
Rises 23:58:59 0° 33° (NNE) 3,315 6.4 -23.8°
Reaches altitude 10° 00:02:42 10° 60° (ENE) 2,378 5.1 -23.7°
Maximum altitude 00:05:09 13° 88° (E) 2,148 4.5 -23.6°
Drops below altitude 10° 00:07:37 10° 117° (ESE) 2,370 4.4 -23.5°
Enters shadow 00:07:47 10° 118° (ESE) 2,400 4.4 -23.5°
